Date_Time,Julian_Date,Latitude,Longitude,Instrument_Depth,Water_Salinity
(yyyy-mm-dd hh:mn:ss UTC),(JD),(+ deg. North),(+ deg. East),(m),(ppt)
1983-12-04 19:30:00 UTC,2445673.312500,29.6650,-93.4789,0037,0.2910
1983-12-04 20:00:00 UTC,2445673.333333,29.6650,-93.4789,0037,0.2920
1983-12-04 20:30:00 UTC,2445673.354167,29.6650,-93.4789,0037,0.2910
1983-12-04 21:00:00 UTC,2445673.375000,29.6650,-93.4789,0037,0.2900
1983-12-04 21:30:00 UTC,2445673.395833,29.6650,-93.4789,0037,0.2900
1983-12-04 22:00:00 UTC,2445673.416667,29.6650,-93.4789,0037,0.2890
1983-12-04 22:30:00 UTC,2445673.437500,29.6650,-93.4789,0037,0.2870
1983-12-04 23:00:00 UTC,2445673.458333,29.6650,-93.4789,0037,0.2860
1983-12-04 23:30:00 UTC,2445673.479167,29.6650,-93.4789,0037,0.2850
1983-12-05 00:00:00 UTC,2445673.500000,29.6650,-93.4789,0037,0.2840
1983-12-05 00:30:00 UTC,2445673.520833,29.6650,-93.4789,0037,0.2820
1983-12-05 01:00:00 UTC,2445673.541667,29.6650,-93.4789,0037,0.2810
1983-12-05 01:30:00 UTC,2445673.562500,29.6650,-93.4789,0037,0.2820
1983-12-05 02:00:00 UTC,2445673.583333,29.6650,-93.4789,0037,0.2820
1983-12-05 02:30:00 UTC,2445673.604167,29.6650,-93.4789,0037,0.2820
1983-12-05 03:00:00 UTC,2445673.625000,29.6650,-93.4789,0037,0.2810
1983-12-05 03:30:00 UTC,2445673.645833,29.6650,-93.4789,0037,0.2800
1983-12-05 04:00:00 UTC,2445673.666667,29.6650,-93.4789,0037,0.2800
1983-12-05 04:30:00 UTC,2445673.687500,29.6650,-93.4789,0037,0.2810
1983-12-05 05:00:00 UTC,2445673.708333,29.6650,-93.4789,0037,0.2820
1983-12-05 05:30:00 UTC,2445673.729167,29.6650,-93.4789,0037,0.2830
1983-12-05 06:00:00 UTC,2445673.750000,29.6650,-93.4789,0037,0.2840
1983-12-05 06:30:00 UTC,2445673.770833,29.6650,-93.4789,0037,0.2830
1983-12-05 07:00:00 UTC,2445673.791667,29.6650,-93.4789,0037,0.2820
1983-12-05 07:30:00 UTC,2445673.812500,29.6650,-93.4789,0037,0.2800
1983-12-05 08:00:00 UTC,2445673.833333,29.6650,-93.4789,0037,0.2790
1983-12-05 08:30:00 UTC,2445673.854167,29.6650,-93.4789,0037,0.2790
1983-12-05 09:00:00 UTC,2445673.875000,29.6650,-93.4789,0037,0.2790
1983-12-05 09:30:00 UTC,2445673.895833,29.6650,-93.4789,0037,0.2790
1983-12-05 10:00:00 UTC,2445673.916667,29.6650,-93.4789,0037,0.2790
1983-12-05 10:30:00 UTC,2445673.937500,29.6650,-93.4789,0037,0.2780
1983-12-05 11:00:00 UTC,2445673.958333,29.6650,-93.4789,0037,0.2770
1983-12-05 11:30:00 UTC,2445673.979167,29.6650,-93.4789,0037,0.2770
1983-12-05 12:00:00 UTC,2445674.000000,29.6650,-93.4789,0037,0.2780
1983-12-05 12:30:00 UTC,2445674.020833,29.6650,-93.4789,0037,0.2790
1983-12-05 13:00:00 UTC,2445674.041667,29.6650,-93.4789,0037,0.2800
1983-12-05 13:30:00 UTC,2445674.062500,29.6650,-93.4789,0037,0.2790
1983-12-05 14:00:00 UTC,2445674.083333,29.6650,-93.4789,0037,0.2780
1983-12-05 14:30:00 UTC,2445674.104167,29.6650,-93.4789,0037,0.2760
1983-12-05 15:00:00 UTC,2445674.125000,29.6650,-93.4789,0037,0.2760
1983-12-05 15:30:00 UTC,2445674.145833,29.6650,-93.4789,0037,0.2760
1983-12-05 16:00:00 UTC,2445674.166667,29.6650,-93.4789,0037,0.2750
1983-12-05 16:30:00 UTC,2445674.187500,29.6650,-93.4789,0037,0.2740
1983-12-05 17:00:00 UTC,2445674.208333,29.6650,-93.4789,0037,0.2750
1983-12-05 17:30:00 UTC,2445674.229167,29.6650,-93.4789,0037,0.2770
1983-12-05 18:00:00 UTC,2445674.250000,29.6650,-93.4789,0037,0.2780
1983-12-05 18:30:00 UTC,2445674.270833,29.6650,-93.4789,0037,0.2790
1983-12-05 19:00:00 UTC,2445674.291667,29.6650,-93.4789,0037,0.2800
1983-12-05 19:30:00 UTC,2445674.312500,29.6650,-93.4789,0037,0.2810
1983-12-05 20:00:00 UTC,2445674.333333,29.6650,-93.4789,0037,0.2820
1983-12-05 20:30:00 UTC,2445674.354167,29.6650,-93.4789,0037,0.2850
1983-12-05 21:00:00 UTC,2445674.375000,29.6650,-93.4789,0037,0.2870
1983-12-05 21:30:00 UTC,2445674.395833,29.6650,-93.4789,0037,0.2890
1983-12-05 22:00:00 UTC,2445674.416667,29.6650,-93.4789,0037,0.2900
1983-12-05 22:30:00 UTC,2445674.437500,29.6650,-93.4789,0037,0.2910
1983-12-05 23:00:00 UTC,2445674.458333,29.6650,-93.4789,0037,0.2920
1983-12-05 23:30:00 UTC,2445674.479167,29.6650,-93.4789,0037,0.2930
1983-12-06 00:00:00 UTC,2445674.500000,29.6650,-93.4789,0037,0.2940
1983-12-06 00:30:00 UTC,2445674.520833,29.6650,-93.4789,0037,0.2940
1983-12-06 01:00:00 UTC,2445674.541667,29.6650,-93.4789,0037,0.2950
1983-12-06 01:30:00 UTC,2445674.562500,29.6650,-93.4789,0037,0.2960
1983-12-06 02:00:00 UTC,2445674.583333,29.6650,-93.4789,0037,0.2960
1983-12-06 02:30:00 UTC,2445674.604167,29.6650,-93.4789,0037,0.2960
1983-12-06 03:00:00 UTC,2445674.625000,29.6650,-93.4789,0037,0.2970
1983-12-06 03:30:00 UTC,2445674.645833,29.6650,-93.4789,0037,0.2970
1983-12-06 04:00:00 UTC,2445674.666667,29.6650,-93.4789,0037,0.2960
1983-12-06 04:30:00 UTC,2445674.687500,29.6650,-93.4789,0037,0.2930
1983-12-06 05:00:00 UTC,2445674.708333,29.6650,-93.4789,0037,0.2900
1983-12-06 05:30:00 UTC,2445674.729167,29.6650,-93.4789,0037,0.2900
1983-12-06 06:00:00 UTC,2445674.750000,29.6650,-93.4789,0037,0.2910
1983-12-06 06:30:00 UTC,2445674.770833,29.6650,-93.4789,0037,0.2920
1983-12-06 07:00:00 UTC,2445674.791667,29.6650,-93.4789,0037,0.2900
1983-12-06 07:30:00 UTC,2445674.812500,29.6650,-93.4789,0037,0.2860
1983-12-06 08:00:00 UTC,2445674.833333,29.6650,-93.4789,0037,0.2820
1983-12-06 08:30:00 UTC,2445674.854167,29.6650,-93.4789,0037,0.2800
1983-12-06 09:00:00 UTC,2445674.875000,29.6650,-93.4789,0037,0.2790
1983-12-06 09:30:00 UTC,2445674.895833,29.6650,-93.4789,0037,0.2770
1983-12-06 10:00:00 UTC,2445674.916667,29.6650,-93.4789,0037,0.2770
1983-12-06 10:30:00 UTC,2445674.937500,29.6650,-93.4789,0037,0.2770
1983-12-06 11:00:00 UTC,2445674.958333,29.6650,-93.4789,0037,0.2750
1983-12-06 11:30:00 UTC,2445674.979167,29.6650,-93.4789,0037,0.2730
1983-12-06 12:00:00 UTC,2445675.000000,29.6650,-93.4789,0037,0.2710
1983-12-06 12:30:00 UTC,2445675.020833,29.6650,-93.4789,0037,0.2710
1983-12-06 13:00:00 UTC,2445675.041667,29.6650,-93.4789,0037,0.2710
1983-12-06 13:30:00 UTC,2445675.062500,29.6650,-93.4789,0037,0.2720
1983-12-06 14:00:00 UTC,2445675.083333,29.6650,-93.4789,0037,0.2730
1983-12-06 14:30:00 UTC,2445675.104167,29.6650,-93.4789,0037,0.2740
1983-12-06 15:00:00 UTC,2445675.125000,29.6650,-93.4789,0037,0.2750
1983-12-06 15:30:00 UTC,2445675.145833,29.6650,-93.4789,0037,0.2760
1983-12-06 16:00:00 UTC,2445675.166667,29.6650,-93.4789,0037,0.2760
1983-12-06 16:30:00 UTC,2445675.187500,29.6650,-93.4789,0037,0.2760
1983-12-06 17:00:00 UTC,2445675.208333,29.6650,-93.4789,0037,0.2770
1983-12-06 17:30:00 UTC,2445675.229167,29.6650,-93.4789,0037,0.2790
1983-12-06 18:00:00 UTC,2445675.250000,29.6650,-93.4789,0037,0.2800
1983-12-06 18:30:00 UTC,2445675.270833,29.6650,-93.4789,0037,0.2810
1983-12-06 19:00:00 UTC,2445675.291667,29.6650,-93.4789,0037,0.2820
1983-12-06 19:30:00 UTC,2445675.312500,29.6650,-93.4789,0037,0.2820
1983-12-06 20:00:00 UTC,2445675.333333,29.6650,-93.4789,0037,0.2820
1983-12-06 20:30:00 UTC,2445675.354167,29.6650,-93.4789,0037,0.2810
1983-12-06 21:00:00 UTC,2445675.375000,29.6650,-93.4789,0037,0.2810
1983-12-06 21:30:00 UTC,2445675.395833,29.6650,-93.4789,0037,0.2820
1983-12-06 22:00:00 UTC,2445675.416667,29.6650,-93.4789,0037,0.2850
1983-12-06 22:30:00 UTC,2445675.437500,29.6650,-93.4789,0037,0.2870
1983-12-06 23:00:00 UTC,2445675.458333,29.6650,-93.4789,0037,0.2860
1983-12-06 23:30:00 UTC,2445675.479167,29.6650,-93.4789,0037,0.2840
1983-12-07 00:00:00 UTC,2445675.500000,29.6650,-93.4789,0037,0.2820
1983-12-07 00:30:00 UTC,2445675.520833,29.6650,-93.4789,0037,0.2820
1983-12-07 01:00:00 UTC,2445675.541667,29.6650,-93.4789,0037,0.2820
1983-12-07 01:30:00 UTC,2445675.562500,29.6650,-93.4789,0037,0.2800
1983-12-07 02:00:00 UTC,2445675.583333,29.6650,-93.4789,0037,0.2800
1983-12-07 02:30:00 UTC,2445675.604167,29.6650,-93.4789,0037,0.2800
1983-12-07 03:00:00 UTC,2445675.625000,29.6650,-93.4789,0037,0.2800
1983-12-07 03:30:00 UTC,2445675.645833,29.6650,-93.4789,0037,0.2800
1983-12-07 04:00:00 UTC,2445675.666667,29.6650,-93.4789,0037,0.2800
1983-12-07 04:30:00 UTC,2445675.687500,29.6650,-93.4789,0037,0.2810
1983-12-07 05:00:00 UTC,2445675.708333,29.6650,-93.4789,0037,0.2820
1983-12-07 05:30:00 UTC,2445675.729167,29.6650,-93.4789,0037,0.2820
1983-12-07 06:00:00 UTC,2445675.750000,29.6650,-93.4789,0037,0.2820
1983-12-07 06:30:00 UTC,2445675.770833,29.6650,-93.4789,0037,0.2820
1983-12-07 07:00:00 UTC,2445675.791667,29.6650,-93.4789,0037,0.2820
1983-12-07 07:30:00 UTC,2445675.812500,29.6650,-93.4789,0037,0.2830
1983-12-07 08:00:00 UTC,2445675.833333,29.6650,-93.4789,0037,0.2830
1983-12-07 08:30:00 UTC,2445675.854167,29.6650,-93.4789,0037,0.2820
1983-12-07 09:00:00 UTC,2445675.875000,29.6650,-93.4789,0037,0.2820
1983-12-07 09:30:00 UTC,2445675.895833,29.6650,-93.4789,0037,0.2820
1983-12-07 10:00:00 UTC,2445675.916667,29.6650,-93.4789,0037,0.2830
1983-12-07 10:30:00 UTC,2445675.937500,29.6650,-93.4789,0037,0.2830
1983-12-07 11:00:00 UTC,2445675.958333,29.6650,-93.4789,0037,0.2840
1983-12-07 11:30:00 UTC,2445675.979167,29.6650,-93.4789,0037,0.2850
1983-12-07 12:00:00 UTC,2445676.000000,29.6650,-93.4789,0037,0.2850
1983-12-07 12:30:00 UTC,2445676.020833,29.6650,-93.4789,0037,0.2850
1983-12-07 13:00:00 UTC,2445676.041667,29.6650,-93.4789,0037,0.2830
1983-12-07 13:30:00 UTC,2445676.062500,29.6650,-93.4789,0037,0.2810
1983-12-07 14:00:00 UTC,2445676.083333,29.6650,-93.4789,0037,0.2800
1983-12-07 14:30:00 UTC,2445676.104167,29.6650,-93.4789,0037,0.2790
1983-12-07 15:00:00 UTC,2445676.125000,29.6650,-93.4789,0037,0.2780
1983-12-07 15:30:00 UTC,2445676.145833,29.6650,-93.4789,0037,0.2800
1983-12-07 16:00:00 UTC,2445676.166667,29.6650,-93.4789,0037,0.2840
1983-12-07 16:30:00 UTC,2445676.187500,29.6650,-93.4789,0037,0.2890
1983-12-07 17:00:00 UTC,2445676.208333,29.6650,-93.4789,0037,0.2920
1983-12-07 17:30:00 UTC,2445676.229167,29.6650,-93.4789,0037,0.2930
1983-12-07 18:00:00 UTC,2445676.250000,29.6650,-93.4789,0037,0.2940
1983-12-07 18:30:00 UTC,2445676.270833,29.6650,-93.4789,0037,0.2950
1983-12-07 19:00:00 UTC,2445676.291667,29.6650,-93.4789,0037,0.2950
1983-12-07 19:30:00 UTC,2445676.312500,29.6650,-93.4789,0037,0.2950
1983-12-07 20:00:00 UTC,2445676.333333,29.6650,-93.4789,0037,0.2940
1983-12-07 20:30:00 UTC,2445676.354167,29.6650,-93.4789,0037,0.2920
1983-12-07 21:00:00 UTC,2445676.375000,29.6650,-93.4789,0037,0.2900
1983-12-07 21:30:00 UTC,2445676.395833,29.6650,-93.4789,0037,0.2880
1983-12-07 22:00:00 UTC,2445676.416667,29.6650,-93.4789,0037,0.2860
1983-12-07 22:30:00 UTC,2445676.437500,29.6650,-93.4789,0037,0.2850
1983-12-07 23:00:00 UTC,2445676.458333,29.6650,-93.4789,0037,0.2840
1983-12-07 23:30:00 UTC,2445676.479167,29.6650,-93.4789,0037,0.2830
1983-12-08 00:00:00 UTC,2445676.500000,29.6650,-93.4789,0037,0.2820
1983-12-08 00:30:00 UTC,2445676.520833,29.6650,-93.4789,0037,0.2830
1983-12-08 01:00:00 UTC,2445676.541667,29.6650,-93.4789,0037,0.2840
1983-12-08 01:30:00 UTC,2445676.562500,29.6650,-93.4789,0037,0.2850
1983-12-08 02:00:00 UTC,2445676.583333,29.6650,-93.4789,0037,0.2850
1983-12-08 02:30:00 UTC,2445676.604167,29.6650,-93.4789,0037,0.2850
1983-12-08 03:00:00 UTC,2445676.625000,29.6650,-93.4789,0037,0.2840
1983-12-08 03:30:00 UTC,2445676.645833,29.6650,-93.4789,0037,0.2840
1983-12-08 04:00:00 UTC,2445676.666667,29.6650,-93.4789,0037,0.2830
1983-12-08 04:30:00 UTC,2445676.687500,29.6650,-93.4789,0037,0.2830
1983-12-08 05:00:00 UTC,2445676.708333,29.6650,-93.4789,0037,0.2830
1983-12-08 05:30:00 UTC,2445676.729167,29.6650,-93.4789,0037,0.2840
1983-12-08 06:00:00 UTC,2445676.750000,29.6650,-93.4789,0037,0.2840
1983-12-08 06:30:00 UTC,2445676.770833,29.6650,-93.4789,0037,0.2830
1983-12-08 07:00:00 UTC,2445676.791667,29.6650,-93.4789,0037,0.2830
1983-12-08 07:30:00 UTC,2445676.812500,29.6650,-93.4789,0037,0.2820
1983-12-08 08:00:00 UTC,2445676.833333,29.6650,-93.4789,0037,0.2820
1983-12-08 08:30:00 UTC,2445676.854167,29.6650,-93.4789,0037,0.2830
1983-12-08 09:00:00 UTC,2445676.875000,29.6650,-93.4789,0037,0.2850
1983-12-08 09:30:00 UTC,2445676.895833,29.6650,-93.4789,0037,0.2890
1983-12-08 10:00:00 UTC,2445676.916667,29.6650,-93.4789,0037,0.2920
1983-12-08 10:30:00 UTC,2445676.937500,29.6650,-93.4789,0037,0.2930
1983-12-08 11:00:00 UTC,2445676.958333,29.6650,-93.4789,0037,0.2930
1983-12-08 11:30:00 UTC,2445676.979167,29.6650,-93.4789,0037,0.2900
1983-12-08 12:00:00 UTC,2445677.000000,29.6650,-93.4789,0037,0.2850
1983-12-08 12:30:00 UTC,2445677.020833,29.6650,-93.4789,0037,0.2820
1983-12-08 13:00:00 UTC,2445677.041667,29.6650,-93.4789,0037,0.2810
1983-12-08 13:30:00 UTC,2445677.062500,29.6650,-93.4789,0037,0.2810
1983-12-08 14:00:00 UTC,2445677.083333,29.6650,-93.4789,0037,0.2810
1983-12-08 14:30:00 UTC,2445677.104167,29.6650,-93.4789,0037,0.2810
1983-12-08 15:00:00 UTC,2445677.125000,29.6650,-93.4789,0037,0.2810
1983-12-08 15:30:00 UTC,2445677.145833,29.6650,-93.4789,0037,0.2810
1983-12-08 16:00:00 UTC,2445677.166667,29.6650,-93.4789,0037,0.2820
1983-12-08 16:30:00 UTC,2445677.187500,29.6650,-93.4789,0037,0.2820
1983-12-08 17:00:00 UTC,2445677.208333,29.6650,-93.4789,0037,0.2830
1983-12-08 17:30:00 UTC,2445677.229167,29.6650,-93.4789,0037,0.2840
1983-12-08 18:00:00 UTC,2445677.250000,29.6650,-93.4789,0037,0.2840
1983-12-08 18:30:00 UTC,2445677.270833,29.6650,-93.4789,0037,0.2850
1983-12-08 19:00:00 UTC,2445677.291667,29.6650,-93.4789,0037,0.2860
1983-12-08 19:30:00 UTC,2445677.312500,29.6650,-93.4789,0037,0.2860
1983-12-08 20:00:00 UTC,2445677.333333,29.6650,-93.4789,0037,0.2860
1983-12-08 20:30:00 UTC,2445677.354167,29.6650,-93.4789,0037,0.2860
1983-12-08 21:00:00 UTC,2445677.375000,29.6650,-93.4789,0037,0.2880
1983-12-08 21:30:00 UTC,2445677.395833,29.6650,-93.4789,0037,0.2900
1983-12-08 22:00:00 UTC,2445677.416667,29.6650,-93.4789,0037,0.2910
1983-12-08 22:30:00 UTC,2445677.437500,29.6650,-93.4789,0037,0.2910
1983-12-08 23:00:00 UTC,2445677.458333,29.6650,-93.4789,0037,0.2900
1983-12-08 23:30:00 UTC,2445677.479167,29.6650,-93.4789,0037,0.2880
1983-12-09 00:00:00 UTC,2445677.500000,29.6650,-93.4789,0037,0.2850
1983-12-09 00:30:00 UTC,2445677.520833,29.6650,-93.4789,0037,0.2820
1983-12-09 01:00:00 UTC,2445677.541667,29.6650,-93.4789,0037,0.2810
1983-12-09 01:30:00 UTC,2445677.562500,29.6650,-93.4789,0037,0.2810
1983-12-09 02:00:00 UTC,2445677.583333,29.6650,-93.4789,0037,0.2820
1983-12-09 02:30:00 UTC,2445677.604167,29.6650,-93.4789,0037,0.2840
1983-12-09 03:00:00 UTC,2445677.625000,29.6650,-93.4789,0037,0.2840
1983-12-09 03:30:00 UTC,2445677.645833,29.6650,-93.4789,0037,0.2850
1983-12-09 04:00:00 UTC,2445677.666667,29.6650,-93.4789,0037,0.2850
1983-12-09 04:30:00 UTC,2445677.687500,29.6650,-93.4789,0037,0.2840
1983-12-09 05:00:00 UTC,2445677.708333,29.6650,-93.4789,0037,0.2830
1983-12-09 05:30:00 UTC,2445677.729167,29.6650,-93.4789,0037,0.2820
1983-12-09 06:00:00 UTC,2445677.750000,29.6650,-93.4789,0037,0.2820
1983-12-09 06:30:00 UTC,2445677.770833,29.6650,-93.4789,0037,0.2820
1983-12-09 07:00:00 UTC,2445677.791667,29.6650,-93.4789,0037,0.2810
1983-12-09 07:30:00 UTC,2445677.812500,29.6650,-93.4789,0037,0.2810
1983-12-09 08:00:00 UTC,2445677.833333,29.6650,-93.4789,0037,0.2810
1983-12-09 08:30:00 UTC,2445677.854167,29.6650,-93.4789,0037,0.2800
1983-12-09 09:00:00 UTC,2445677.875000,29.6650,-93.4789,0037,0.2800
1983-12-09 09:30:00 UTC,2445677.895833,29.6650,-93.4789,0037,0.2790
1983-12-09 10:00:00 UTC,2445677.916667,29.6650,-93.4789,0037,0.2790
1983-12-09 10:30:00 UTC,2445677.937500,29.6650,-93.4789,0037,0.2790
1983-12-09 11:00:00 UTC,2445677.958333,29.6650,-93.4789,0037,0.2790
1983-12-09 11:30:00 UTC,2445677.979167,29.6650,-93.4789,0037,0.2790
1983-12-09 12:00:00 UTC,2445678.000000,29.6650,-93.4789,0037,0.2790
1983-12-09 12:30:00 UTC,2445678.020833,29.6650,-93.4789,0037,0.2790
1983-12-09 13:00:00 UTC,2445678.041667,29.6650,-93.4789,0037,0.2790
1983-12-09 13:30:00 UTC,2445678.062500,29.6650,-93.4789,0037,0.2790
1983-12-09 14:00:00 UTC,2445678.083333,29.6650,-93.4789,0037,0.2790
1983-12-09 14:30:00 UTC,2445678.104167,29.6650,-93.4789,0037,0.2790
1983-12-09 15:00:00 UTC,2445678.125000,29.6650,-93.4789,0037,0.2790
1983-12-09 15:30:00 UTC,2445678.145833,29.6650,-93.4789,0037,0.2790
1983-12-09 16:00:00 UTC,2445678.166667,29.6650,-93.4789,0037,0.2790
1983-12-09 16:30:00 UTC,2445678.187500,29.6650,-93.4789,0037,0.2790
1983-12-09 17:00:00 UTC,2445678.208333,29.6650,-93.4789,0037,0.2800
1983-12-09 17:30:00 UTC,2445678.229167,29.6650,-93.4789,0037,0.2800
1983-12-09 18:00:00 UTC,2445678.250000,29.6650,-93.4789,0037,0.2820
1983-12-09 18:30:00 UTC,2445678.270833,29.6650,-93.4789,0037,0.2840
1983-12-09 19:00:00 UTC,2445678.291667,29.6650,-93.4789,0037,0.2850
1983-12-09 19:30:00 UTC,2445678.312500,29.6650,-93.4789,0037,0.2840
1983-12-09 20:00:00 UTC,2445678.333333,29.6650,-93.4789,0037,0.2860
1983-12-09 20:30:00 UTC,2445678.354167,29.6650,-93.4789,0037,0.2860
1983-12-09 21:00:00 UTC,2445678.375000,29.6650,-93.4789,0037,0.2830
1983-12-09 21:30:00 UTC,2445678.395833,29.6650,-93.4789,0037,0.2800
1983-12-09 22:00:00 UTC,2445678.416667,29.6650,-93.4789,0037,0.2790
1983-12-09 22:30:00 UTC,2445678.437500,29.6650,-93.4789,0037,0.2790
1983-12-09 23:00:00 UTC,2445678.458333,29.6650,-93.4789,0037,0.2790
1983-12-09 23:30:00 UTC,2445678.479167,29.6650,-93.4789,0037,0.2780
1983-12-10 00:00:00 UTC,2445678.500000,29.6650,-93.4789,0037,0.2770
1983-12-10 00:30:00 UTC,2445678.520833,29.6650,-93.4789,0037,0.2760
1983-12-10 01:00:00 UTC,2445678.541667,29.6650,-93.4789,0037,0.2750
1983-12-10 01:30:00 UTC,2445678.562500,29.6650,-93.4789,0037,0.2750
1983-12-10 02:00:00 UTC,2445678.583333,29.6650,-93.4789,0037,0.2740
1983-12-10 02:30:00 UTC,2445678.604167,29.6650,-93.4789,0037,0.2740
1983-12-10 03:00:00 UTC,2445678.625000,29.6650,-93.4789,0037,0.2740
1983-12-10 03:30:00 UTC,2445678.645833,29.6650,-93.4789,0037,0.2740
1983-12-10 04:00:00 UTC,2445678.666667,29.6650,-93.4789,0037,0.2740
1983-12-10 04:30:00 UTC,2445678.687500,29.6650,-93.4789,0037,0.2740
1983-12-10 05:00:00 UTC,2445678.708333,29.6650,-93.4789,0037,0.2740
1983-12-10 05:30:00 UTC,2445678.729167,29.6650,-93.4789,0037,0.2740
1983-12-10 06:00:00 UTC,2445678.750000,29.6650,-93.4789,0037,0.2740
1983-12-10 06:30:00 UTC,2445678.770833,29.6650,-93.4789,0037,0.2740
1983-12-10 07:00:00 UTC,2445678.791667,29.6650,-93.4789,0037,0.2750
1983-12-10 07:30:00 UTC,2445678.812500,29.6650,-93.4789,0037,0.2750
1983-12-10 08:00:00 UTC,2445678.833333,29.6650,-93.4789,0037,0.2760
1983-12-10 08:30:00 UTC,2445678.854167,29.6650,-93.4789,0037,0.2770
1983-12-10 09:00:00 UTC,2445678.875000,29.6650,-93.4789,0037,0.2770
1983-12-10 09:30:00 UTC,2445678.895833,29.6650,-93.4789,0037,0.2770
1983-12-10 10:00:00 UTC,2445678.916667,29.6650,-93.4789,0037,0.2770
1983-12-10 10:30:00 UTC,2445678.937500,29.6650,-93.4789,0037,0.2770
1983-12-10 11:00:00 UTC,2445678.958333,29.6650,-93.4789,0037,0.2770
1983-12-10 11:30:00 UTC,2445678.979167,29.6650,-93.4789,0037,0.2770
1983-12-10 12:00:00 UTC,2445679.000000,29.6650,-93.4789,0037,0.2780
1983-12-10 12:30:00 UTC,2445679.020833,29.6650,-93.4789,0037,0.2780
1983-12-10 13:00:00 UTC,2445679.041667,29.6650,-93.4789,0037,0.2780
1983-12-10 13:30:00 UTC,2445679.062500,29.6650,-93.4789,0037,0.2780
1983-12-10 14:00:00 UTC,2445679.083333,29.6650,-93.4789,0037,0.2780
1983-12-10 14:30:00 UTC,2445679.104167,29.6650,-93.4789,0037,0.2770
1983-12-10 15:00:00 UTC,2445679.125000,29.6650,-93.4789,0037,0.2770
1983-12-10 15:30:00 UTC,2445679.145833,29.6650,-93.4789,0037,0.2760
1983-12-10 16:00:00 UTC,2445679.166667,29.6650,-93.4789,0037,0.2750
1983-12-10 16:30:00 UTC,2445679.187500,29.6650,-93.4789,0037,0.2740
1983-12-10 17:00:00 UTC,2445679.208333,29.6650,-93.4789,0037,0.2740
1983-12-10 17:30:00 UTC,2445679.229167,29.6650,-93.4789,0037,0.2740
1983-12-10 18:00:00 UTC,2445679.250000,29.6650,-93.4789,0037,0.2750
1983-12-10 18:30:00 UTC,2445679.270833,29.6650,-93.4789,0037,0.2740
1983-12-10 19:00:00 UTC,2445679.291667,29.6650,-93.4789,0037,0.2740
1983-12-10 19:30:00 UTC,2445679.312500,29.6650,-93.4789,0037,0.2730
1983-12-10 20:00:00 UTC,2445679.333333,29.6650,-93.4789,0037,0.2730
1983-12-10 20:30:00 UTC,2445679.354167,29.6650,-93.4789,0037,0.2730
1983-12-10 21:00:00 UTC,2445679.375000,29.6650,-93.4789,0037,0.2730
1983-12-10 21:30:00 UTC,2445679.395833,29.6650,-93.4789,0037,0.2730
1983-12-10 22:00:00 UTC,2445679.416667,29.6650,-93.4789,0037,0.2730
1983-12-10 22:30:00 UTC,2445679.437500,29.6650,-93.4789,0037,0.2730
1983-12-10 23:00:00 UTC,2445679.458333,29.6650,-93.4789,0037,0.2730
1983-12-10 23:30:00 UTC,2445679.479167,29.6650,-93.4789,0037,0.2730
1983-12-11 00:00:00 UTC,2445679.500000,29.6650,-93.4789,0037,0.2730
1983-12-11 00:30:00 UTC,2445679.520833,29.6650,-93.4789,0037,0.2730
1983-12-11 01:00:00 UTC,2445679.541667,29.6650,-93.4789,0037,0.2730
1983-12-11 01:30:00 UTC,2445679.562500,29.6650,-93.4789,0037,0.2730
1983-12-11 02:00:00 UTC,2445679.583333,29.6650,-93.4789,0037,0.2730
1983-12-11 02:30:00 UTC,2445679.604167,29.6650,-93.4789,0037,0.2740
1983-12-11 03:00:00 UTC,2445679.625000,29.6650,-93.4789,0037,0.2760
1983-12-11 03:30:00 UTC,2445679.645833,29.6650,-93.4789,0037,0.2770
1983-12-11 04:00:00 UTC,2445679.666667,29.6650,-93.4789,0037,0.2790
1983-12-11 04:30:00 UTC,2445679.687500,29.6650,-93.4789,0037,0.2800
1983-12-11 05:00:00 UTC,2445679.708333,29.6650,-93.4789,0037,0.2820
1983-12-11 05:30:00 UTC,2445679.729167,29.6650,-93.4789,0037,0.2820
1983-12-11 06:00:00 UTC,2445679.750000,29.6650,-93.4789,0037,0.2830
1983-12-11 06:30:00 UTC,2445679.770833,29.6650,-93.4789,0037,0.2840
1983-12-11 07:00:00 UTC,2445679.791667,29.6650,-93.4789,0037,0.2850
1983-12-11 07:30:00 UTC,2445679.812500,29.6650,-93.4789,0037,0.2850
1983-12-11 08:00:00 UTC,2445679.833333,29.6650,-93.4789,0037,0.2850
1983-12-11 08:30:00 UTC,2445679.854167,29.6650,-93.4789,0037,0.2850
1983-12-11 09:00:00 UTC,2445679.875000,29.6650,-93.4789,0037,0.2850
1983-12-11 09:30:00 UTC,2445679.895833,29.6650,-93.4789,0037,0.2850
1983-12-11 10:00:00 UTC,2445679.916667,29.6650,-93.4789,0037,0.2850
1983-12-11 10:30:00 UTC,2445679.937500,29.6650,-93.4789,0037,0.2850
1983-12-11 11:00:00 UTC,2445679.958333,29.6650,-93.4789,0037,0.2830
1983-12-11 11:30:00 UTC,2445679.979167,29.6650,-93.4789,0037,0.2820
1983-12-11 12:00:00 UTC,2445680.000000,29.6650,-93.4789,0037,0.2820
1983-12-11 12:30:00 UTC,2445680.020833,29.6650,-93.4789,0037,0.2810
1983-12-11 13:00:00 UTC,2445680.041667,29.6650,-93.4789,0037,0.2810
1983-12-11 13:30:00 UTC,2445680.062500,29.6650,-93.4789,0037,0.2820
1983-12-11 14:00:00 UTC,2445680.083333,29.6650,-93.4789,0037,0.2820
1983-12-11 14:30:00 UTC,2445680.104167,29.6650,-93.4789,0037,0.2820
1983-12-11 15:00:00 UTC,2445680.125000,29.6650,-93.4789,0037,0.2820
1983-12-11 15:30:00 UTC,2445680.145833,29.6650,-93.4789,0037,0.2820
1983-12-11 16:00:00 UTC,2445680.166667,29.6650,-93.4789,0037,0.2820
1983-12-11 16:30:00 UTC,2445680.187500,29.6650,-93.4789,0037,0.2830
1983-12-11 17:00:00 UTC,2445680.208333,29.6650,-93.4789,0037,0.2850
1983-12-11 17:30:00 UTC,2445680.229167,29.6650,-93.4789,0037,0.2860
1983-12-11 18:00:00 UTC,2445680.250000,29.6650,-93.4789,0037,0.2860
1983-12-11 18:30:00 UTC,2445680.270833,29.6650,-93.4789,0037,0.2860
1983-12-11 19:00:00 UTC,2445680.291667,29.6650,-93.4789,0037,0.2860
1983-12-11 19:30:00 UTC,2445680.312500,29.6650,-93.4789,0037,0.2870
1983-12-11 20:00:00 UTC,2445680.333333,29.6650,-93.4789,0037,0.2880
1983-12-11 20:30:00 UTC,2445680.354167,29.6650,-93.4789,0037,0.2880
1983-12-11 21:00:00 UTC,2445680.375000,29.6650,-93.4789,0037,0.2880
1983-12-11 21:30:00 UTC,2445680.395833,29.6650,-93.4789,0037,0.2880
1983-12-11 22:00:00 UTC,2445680.416667,29.6650,-93.4789,0037,0.2870
1983-12-11 22:30:00 UTC,2445680.437500,29.6650,-93.4789,0037,0.2870
1983-12-11 23:00:00 UTC,2445680.458333,29.6650,-93.4789,0037,0.2870
1983-12-11 23:30:00 UTC,2445680.479167,29.6650,-93.4789,0037,0.2860
1983-12-12 00:00:00 UTC,2445680.500000,29.6650,-93.4789,0037,0.2860
1983-12-12 00:30:00 UTC,2445680.520833,29.6650,-93.4789,0037,0.2880
1983-12-12 01:00:00 UTC,2445680.541667,29.6650,-93.4789,0037,0.2880
1983-12-12 01:30:00 UTC,2445680.562500,29.6650,-93.4789,0037,0.2870
1983-12-12 02:00:00 UTC,2445680.583333,29.6650,-93.4789,0037,0.2870